{"data":{"norad_id":56846,"intl_designator":"2023-081A","name":"2023-081A","alt_names":[],"object_type":"PAYLOAD","status":"ACTIVE","operator":null,"country":"PRC","launch_date":"2023-06-07","launch_site_code":"JSC","launch_vehicle":null,"mission":null,"orbit_class":"UNKNOWN","rcs_meters":null,"size_class":null,"mass_kg":null,"dimensions":null,"purposes":[],"wikipedia_slug":null,"has_3d_model":false,"image_url":null,"decayed_at":null,"tle_current":{"epoch":"2026-09-21T21:50:47.137920Z","epoch_age_seconds":77793,"freshness":"FRESH","line1":"1 56846U 23081A   26264.91026780  .00005788  00000+0  23881-3 0  9998","line2":"2 56846  97.3614 333.2885 0001354 120.3924 239.7448 15.24427590182745","mean_motion":15.2442759,"eccentricity":0.0001354,"inclination_deg":97.3614,"raan_deg":333.2885,"arg_perigee_deg":120.3924,"mean_anomaly_deg":239.7448,"bstar":0.00023881,"rev_number":18274,"period_min":94.461685779382,"perigee_km":491.57452378715,"apogee_km":493.43509358894,"semimajor_km":6870.641808688,"source":"CELESTRAK","updated_at":"2026-09-22T09:00:25.955441Z"}}}